| time (UTC) | temp F | wind direction | speed knots | gust knots | rain 1hr in | rain 24hr in | rain mn in | humidity % | barometer mb |
| 20260903134612 | 86 | 0 | 0.0 | 0.9 | 0.00 | 0.00 | 0.00 | 77 | 1018.8 |
| 20260903133058 | 84 | 0 | 0.0 | 0.9 | 0.00 | 0.00 | 0.00 | 80 | 1018.8 |
| 20260903131557 | 82 | 0 | 0.0 | 0.9 | 0.00 | 0.00 | 0.00 | 86 | 1018.8 |
| 20260903124606 | 75 | 0 | 0.0 | 0.0 | 0.00 | 0.00 | 0.00 | 95 | 1019.0 |
| 20260903123053 | 74 | 0 | 0.0 | 0.0 | 0.00 | 0.00 | 0.00 | 95 | 1019.0 |
| 20260903121557 | 73 | 0 | 0.0 | 0.0 | 0.00 | 0.00 | 0.00 | 95 | 1018.9 |
| 20260903120117 | 72 | 0 | 0.0 | 0.0 | 0.00 | 0.00 | 0.00 | 95 | 1018.8 |
| 20260903114602 | 72 | 0 | 0.0 | 0.0 | 0.00 | 0.00 | 0.00 | 95 | 1018.8 |
| 20260903113053 | 71 | 0 | 0.0 | 0.0 | 0.00 | 0.00 | 0.00 | 94 | 1018.6 |
| 20260903111553 | 71 | 0 | 0.0 | 0.0 | 0.00 | 0.00 | 0.00 | 94 | 1018.6 |
| 20260903110103 | 71 | 0 | 0.0 | 0.0 | 0.00 | 0.00 | 0.00 | 94 | 1018.4 |
| 20260903104553 | 71 | 0 | 0.0 | 0.0 | 0.00 | 0.00 | 0.00 | 94 | 1018.2 |
| 20260903103056 | 71 | 0 | 0.0 | 0.0 | 0.00 | 0.00 | 0.00 | 94 | 1018.1 |
| 20260903101551 | 71 | 0 | 0.0 | 0.0 | 0.00 | 0.00 | 0.00 | 94 | 1018.0 |
| 20260903100052 | 71 | 0 | 0.0 | 0.0 | 0.00 | 0.00 | 0.00 | 94 | 1017.9 |
| 20260903094552 | 72 | 0 | 0.0 | 0.0 | 0.00 | 0.00 | 0.00 | 94 | 1017.9 |
| 20260903093056 | 72 | 0 | 0.0 | 0.0 | 0.00 | 0.00 | 0.00 | 94 | 1017.8 |
| 20260903091553 | 72 | 0 | 0.0 | 0.0 | 0.00 | 0.00 | 0.00 | 94 | 1017.9 |
| 20260903084554 | 72 | 0 | 0.0 | 0.9 | 0.00 | 0.00 | 0.00 | 94 | 1017.7 |
| 20260903083056 | 72 | 0 | 0.0 | 0.0 | 0.00 | 0.00 | 0.00 | 93 | 1017.7 |
| 20260903081550 | 73 | 0 | 0.0 | 0.0 | 0.00 | 0.00 | 0.00 | 93 | 1017.7 |
| 20260903074618 | 73 | 0 | 0.0 | 0.0 | 0.00 | 0.00 | 0.00 | 93 | 1017.4 |
| 20260903073059 | 73 | 0 | 0.0 | 0.0 | 0.00 | 0.00 | 0.00 | 93 | 1017.4 |
| 20260903071605 | 73 | 0 | 0.0 | 0.0 | 0.00 | 0.00 | 0.00 | 93 | 1017.3 |
| 20260903070057 | 73 | 0 | 0.0 | 0.0 | 0.00 | 0.00 | 0.00 | 93 | 1017.3 |
| 20260903064552 | 73 | 0 | 0.0 | 0.0 | 0.00 | 0.00 | 0.00 | 93 | 1017.2 |
| 20260903063105 | 74 | 0 | 0.0 | 0.0 | 0.00 | 0.00 | 0.00 | 93 | 1017.1 |
| 20260903061604 | 74 | 0 | 0.0 | 0.0 | 0.00 | 0.00 | 0.00 | 93 | 1017.3 |
| 20260903060100 | 74 | 0 | 0.0 | 0.0 | 0.00 | 0.00 | 0.00 | 93 | 1017.4 |
| 20260903054602 | 74 | 0 | 0.0 | 0.0 | 0.00 | 0.00 | 0.00 | 92 | 1017.3 |
| 20260903053101 | 75 | 0 | 0.0 | 0.0 | 0.00 | 0.00 | 0.00 | 92 | 1017.3 |
| 20260903051600 | 75 | 0 | 0.0 | 0.0 | 0.00 | 0.00 | 0.00 | 92 | 1017.3 |
| 20260903044603 | 75 | 0 | 0.0 | 0.0 | 0.00 | 0.00 | 0.00 | 92 | 1017.5 |
| 20260903043048 | 75 | 0 | 0.0 | 0.9 | 0.00 | 0.00 | 0.00 | 92 | 1017.5 |
| 20260903041610 | 75 | 0 | 0.0 | 0.0 | 0.00 | 0.00 | 0.00 | 92 | 1017.4 |
| 20260903040056 | 75 | 0 | 0.0 | 0.0 | 0.00 | 0.00 | 0.00 | 92 | 1017.5 |
| 20260903034551 | 76 | 0 | 0.0 | 0.0 | 0.00 | 0.00 | 0.00 | 91 | 1017.5 |
| 20260903033057 | 76 | 0 | 0.0 | 0.0 | 0.00 | 0.00 | 0.00 | 91 | 1017.9 |
| 20260903031556 | 76 | 0 | 0.0 | 0.0 | 0.00 | 0.00 | 0.00 | 90 | 1018.1 |
| 20260903030054 | 76 | 0 | 0.0 | 0.0 | 0.00 | 0.00 | 0.00 | 90 | 1018.2 |
| 20260903024600 | 77 | 0 | 0.0 | 0.0 | 0.00 | 0.00 | 0.00 | 90 | 1018.2 |
| 20260903023057 | 77 | 0 | 0.0 | 0.0 | 0.00 | 0.00 | 0.00 | 89 | 1018.5 |
| 20260903021555 | 77 | 0 | 0.0 | 0.0 | 0.00 | 0.00 | 0.00 | 88 | 1018.5 |
| 20260903020055 | 78 | 0 | 0.0 | 0.0 | 0.00 | 0.00 | 0.00 | 88 | 1018.5 |
| 20260903014613 | 78 | 0 | 0.0 | 0.0 | 0.00 | 0.00 | 0.00 | 87 | 1018.3 |
| 20260903013102 | 79 | 0 | 0.0 | 0.0 | 0.00 | 0.00 | 0.00 | 86 | 1018.0 |
| 20260903011614 | 80 | 0 | 0.0 | 0.0 | 0.00 | 0.00 | 0.00 | 85 | 1017.8 |
| 20260903010108 | 80 | 0 | 0.0 | 0.0 | 0.00 | 0.00 | 0.00 | 85 | 1017.6 |
| 20260903004550 | 81 | 0 | 0.0 | 0.0 | 0.00 | 0.00 | 0.00 | 83 | 1017.5 |
| 20260903003113 | 82 | 0 | 0.0 | 0.0 | 0.00 | 0.00 | 0.00 | 81 | 1017.4 |
| 20260903001601 | 83 | 0 | 0.0 | 0.0 | 0.00 | 0.00 | 0.00 | 77 | 1017.4 |
| 20260903000052 | 84 | 0 | 0.0 | 0.0 | 0.00 | 0.00 | 0.00 | 76 | 1017.4 |
| 20260902234554 | 86 | 0 | 0.0 | 0.0 | 0.00 | 0.00 | 0.00 | 72 | 1017.3 |
| 20260902233054 | 88 | 0 | 0.0 | 0.0 | 0.00 | 0.00 | 0.00 | 69 | 1017.3 |
| 20260902231552 | 90 | 0 | 0.0 | 0.0 | 0.00 | 0.00 | 0.00 | 65 | 1017.3 |
| 20260902230059 | 93 | 0 | 0.0 | 0.0 | 0.00 | 0.00 | 0.00 | 59 | 1017.2 |
| 20260902224552 | 95 | 0 | 0.0 | 0.9 | 0.00 | 0.00 | 0.00 | 51 | 1017.1 |
| 20260902223056 | 97 | 0 | 0.0 | 0.0 | 0.00 | 0.00 | 0.00 | 48 | 1017.1 |
| 20260902221557 | 98 | 0 | 0.0 | 0.9 | 0.00 | 0.00 | 0.00 | 41 | 1017.2 |
| 20260902220101 | 100 | 0 | 0.0 | 0.9 | 0.00 | 0.00 | 0.00 | 42 | 1017.2 |
| 20260902214555 | 99 | 0 | 0.0 | 1.7 | 0.00 | 0.00 | 0.00 | 42 | 1017.3 |
| 20260902213104 | 98 | 0 | 0.9 | 1.7 | 0.00 | 0.00 | 0.00 | 43 | 1017.4 |
| 20260902211558 | 99 | 0 | 0.0 | 1.7 | 0.00 | 0.00 | 0.00 | 45 | 1017.4 |
| 20260902210054 | 98 | 234 | 0.0 | 1.7 | 0.00 | 0.00 | 0.00 | 43 | 1017.5 |
| 20260902204554 | 98 | 0 | 0.0 | 2.6 | 0.00 | 0.00 | 0.00 | 42 | 1017.6 |
| 20260902203049 | 100 | 0 | 0.0 | 1.7 | 0.00 | 0.00 | 0.00 | 44 | 1017.4 |
| 20260902201602 | 99 | 296 | 0.0 | 1.7 | 0.00 | 0.00 | 0.00 | 45 | 1017.5 |
| 20260902200056 | 99 | 242 | 0.0 | 2.6 | 0.00 | 0.00 | 0.00 | 44 | 1017.7 |
| 20260902194556 | 98 | 211 | 0.9 | 2.6 | 0.00 | 0.00 | 0.00 | 44 | 1017.9 |
| 20260902193047 | 98 | 80 | 0.0 | 1.7 | 0.00 | 0.00 | 0.00 | 49 | 1018.0 |
| 20260902191553 | 96 | 221 | 0.9 | 3.5 | 0.00 | 0.00 | 0.00 | 45 | 1018.0 |
| 20260902190056 | 97 | 236 | 0.9 | 3.5 | 0.00 | 0.00 | 0.00 | 47 | 1018.4 |
| 20260902184552 | 96 | 153 | 0.0 | 1.7 | 0.00 | 0.00 | 0.00 | 46 | 1018.4 |
| 20260902183048 | 98 | 304 | 0.0 | 2.6 | 0.00 | 0.00 | 0.00 | 49 | 1018.4 |
| 20260902181557 | 97 | 245 | 0.9 | 2.6 | 0.00 | 0.00 | 0.00 | 45 | 1018.6 |
| 20260902180056 | 98 | 92 | 0.0 | 7.8 | 0.00 | 0.00 | 0.00 | 46 | 1018.7 |
| 20260902174604 | 97 | 0 | 0.9 | 3.5 | 0.00 | 0.00 | 0.00 | 48 | 1018.8 |
| 20260902173057 | 96 | 268 | 0.0 | 4.3 | 0.00 | 0.00 | 0.00 | 47 | 1018.9 |
| 20260902171600 | 97 | 103 | 0.0 | 8.7 | 0.00 | 0.00 | 0.00 | 52 | 1019.2 |
| 20260902170054 | 96 | 111 | 0.0 | 3.5 | 0.00 | 0.00 | 0.00 | 49 | 1019.3 |
| 20260902164559 | 94 | 17 | 0.0 | 1.7 | 0.00 | 0.00 | 0.00 | 53 | 1019.5 |
| 20260902163055 | 94 | 223 | 0.9 | 2.6 | 0.00 | 0.00 | 0.00 | 52 | 1019.7 |
| 20260902161605 | 95 | 41 | 0.0 | 3.5 | 0.00 | 0.00 | 0.00 | 52 | 1019.7 |
| 20260902160107 | 94 | 340 | 0.0 | 0.9 | 0.00 | 0.00 | 0.00 | 56 | 1019.8 |
| 20260902154600 | 94 | 238 | 0.0 | 0.9 | 0.00 | 0.00 | 0.00 | 55 | 1019.9 |
| 20260902153050 | 92 | 0 | 0.0 | 1.7 | 0.00 | 0.00 | 0.00 | 60 | 1019.8 |
| 20260902151611 | 92 | 26 | 0.9 | 2.6 | 0.00 | 0.00 | 0.00 | 58 | 1019.8 |
| 20260902150052 | 91 | 157 | 0.0 | 0.9 | 0.00 | 0.00 | 0.00 | 64 | 1019.7 |
| 20260902144555 | 90 | 0 | 0.0 | 0.9 | 0.00 | 0.00 | 0.00 | 66 | 1019.8 |
| 20260902143052 | 89 | 210 | 0.0 | 0.9 | 0.00 | 0.00 | 0.00 | 67 | 1019.8 |
| 20260902141553 | 88 | 0 | 0.0 | 0.9 | 0.00 | 0.00 | 0.00 | 68 | 1019.6 |